Prescott, AZ

7:30 AM MST on November 12, 2019 (GMT -0700)
Love

Weather History for KPRC - May, 2019

Change the Weather History Date:

Saturday, May 4, 2019

  Actual Average Record
Temperature  
Mean Temperature 62 °F 58 °F  
Max Temperature 79 °F 73 °F 86 °F (1997)
Min Temperature 44 °F 43 °F 31 °F (1965)
Degree Days  
Heating Degree Days 3    
Month to date heating degree days 28  
Since 1 July heating degree days 4077  
Cooling Degree Days 0    
Month to date cooling degree days 0  
Year to date cooling degree days 1  
Growing Degree Days 12 (Base 50)    
Moisture  
Dew Point 23 °F    
Average Humidity 24    
Maximum Humidity 42    
Minimum Humidity 10    
Precipitation  
Precipitation 0.00 in 0.02 in 0.65 in (1982)
Month to date precipitation 0.00 0.06  
Year to date precipitation 5.52 4.14  
Sea Level Pressure  
Sea Level Pressure 29.79 in    
Wind  
Wind Speed 8 mph (SSW)    
Max Wind Speed 18 mph    
Max Gust Speed 24 mph    
Visibility 10 miles    
Events      
T = Trace of Precipitation, MM = Missing Value Source: NWS Daily Summary

Daily Weather History Graph

Daily Weather History Graph

Search for Another Location

Airport or City:

Astronomy

May. 04, 2019 Rise Set
Actual Time 5:36 AM MST 7:16 PM MST
Civil Twilight 5:09 AM MST 7:44 PM MST
Nautical Twilight 4:36 AM MST 8:16 PM MST
Astronomical Twilight 4:02 AM MST 8:51 PM MST
Moon 5:45 AM MST (5/4) 7:12 PM MST (5/4)
Length of Visible Light 14h 34m
Length of Day
13h 40m
Waning Crescent, 0% of the Moon is Illuminated
May 4
Waning Crescent
May 4
New
May 11
First Quarter
May 18
Full
May 26
Last Quarter

Hourly Weather History & Observations

Time (MST) Temp. Windchill Dew Point Humidity Pressure Visibility Wind Dir Wind Speed Gust Speed Precip Events Conditions
12:53 AM 48.0 °F - 26.1 °F 42% 29.84 in 10.0 mi South 6.9 mph - N/A   Clear
1:53 AM 50.0 °F - 24.1 °F 36% 29.81 in 10.0 mi South 3.5 mph - N/A   Clear
2:53 AM 48.9 °F - 24.1 °F 38% 29.81 in 10.0 mi South 10.4 mph - N/A   Clear
3:53 AM 46.9 °F - 23.0 °F 39% 29.81 in 10.0 mi SSW 5.8 mph - N/A   Clear
4:53 AM 46.9 °F - 23.0 °F 39% 29.82 in 10.0 mi South 9.2 mph - N/A   Clear
5:53 AM 46.0 °F 42.5 °F 23.0 °F 40% 29.83 in 10.0 mi SSW 6.9 mph - N/A   Clear
6:53 AM 52.0 °F - 23.0 °F 32% 29.84 in 10.0 mi Calm Calm - N/A   Clear
7:53 AM 60.1 °F - 24.1 °F 25% 29.85 in 10.0 mi Calm Calm - N/A   Clear
8:53 AM 66.9 °F - 24.1 °F 20% 29.83 in 10.0 mi Calm Calm - N/A   Clear
9:53 AM 71.1 °F - 21.9 °F 16% 29.82 in 10.0 mi Calm Calm - N/A   Clear
10:53 AM 73.0 °F - 21.0 °F 14% 29.82 in 10.0 mi Variable 6.9 mph - N/A   Clear
11:53 AM 75.0 °F - 21.0 °F 13% 29.80 in 10.0 mi South 6.9 mph - N/A   Partly Cloudy
12:53 PM 78.1 °F - 23.0 °F 13% 29.78 in 10.0 mi South 15.0 mph - N/A   Partly Cloudy
1:53 PM 77.0 °F - 19.9 °F 12% 29.76 in 10.0 mi SW 15.0 mph 21.9 mph N/A   Scattered Clouds
2:53 PM 77.0 °F - 19.9 °F 12% 29.75 in 10.0 mi SW 17.3 mph 21.9 mph N/A   Scattered Clouds
3:53 PM 77.0 °F - 18.0 °F 11% 29.74 in 10.0 mi WSW 15.0 mph 21.9 mph N/A   Scattered Clouds
4:53 PM 75.9 °F - 19.9 °F 12% 29.74 in 10.0 mi SSW 15.0 mph 19.6 mph N/A   Scattered Clouds
5:53 PM 73.0 °F - 19.9 °F 14% 29.75 in 10.0 mi SSW 13.8 mph - N/A   Clear
6:53 PM 71.1 °F - 19.9 °F 14% 29.74 in 10.0 mi SSW 10.4 mph - N/A   Clear
7:53 PM 66.0 °F - 24.1 °F 20% 29.75 in 10.0 mi SSW 4.6 mph - N/A   Clear
8:53 PM 61.0 °F - 26.1 °F 26% 29.76 in 10.0 mi SSW 6.9 mph - N/A   Clear
9:53 PM 57.0 °F - 25.0 °F 29% 29.75 in 10.0 mi South 6.9 mph - N/A   Clear
10:53 PM 55.9 °F - 24.1 °F 29% 29.75 in 10.0 mi SSW 5.8 mph - N/A   Clear
11:53 PM 55.9 °F - 25.0 °F 30% 29.75 in 10.0 mi South 8.1 mph - N/A   Clear